Weather History for Vernon, TX

Change the Weather History Date:

Monday, December 3, 2012

  Actual Average (KLTS) Record (KLTS)
Temperature  
Mean Temperature 72 °F -  
Max Temperature 84 °F 54 °F 82 °F (2012)
Min Temperature 58 °F 32 °F 22 °F (2007)
Cooling Degree Days 6    
Growing Degree Days 22 (Base 50)    
Moisture  
Dew Point 46 °F    
Average Humidity 52    
Maximum Humidity 87    
Minimum Humidity 14    
Precipitation  
Precipitation 0.00 in - - ()
Sea Level Pressure  
Sea Level Pressure 29.89 in    
Wind  
Wind Speed 16 mph (SW)    
Max Wind Speed 24 mph    
Max Gust Speed 31 mph    
Visibility 10 miles    
Events      
Averages and records for this station are not official NWS values.
T = Trace of Precipitation, MM = Missing Value Source: NWS Daily Summary

Daily Weather History Graph

Daily Weather History Graph

Search for Another Location

Airport:

Trip Planner

Search our weather history database for the weather conditions in past years. The results will help you decide how hot, cold, wet, or windy it might be!

Date:

Astronomy

Dec. 03, 2012 Rise Set
Actual Time 7:27 AM CST 5:27 PM CST
Civil Twilight 6:59 AM CST 5:54 PM CST
Nautical Twilight 6:28 AM CST 6:25 PM CST
Astronomical Twilight 5:58 AM CST 6:56 PM CST
Moon 10:08 PM CST (12/3) 10:57 AM CST (12/3)
Length of Visible Light 10h 55m
Length of Day
10h 00m
Waning Gibbous, 78% of the Moon is Illuminated
Dec 3
Waning Gibbous
Dec 6
Last Quarter
Dec 13
New
Dec 19
First Quarter
Dec 28
Full

Hourly Weather History & Observations

Time (CST) Temp. Dew Point Humidity Pressure Visibility Wind Dir Wind Speed Gust Speed Precip Events Conditions
12:15 AM 65.7 °F 53.2 °F 64% 29.91 in 10.0 mi South 12.7 mph - N/A   Clear
12:35 AM 65.7 °F 54.1 °F 66% 29.92 in 10.0 mi SSW 15.0 mph - N/A   Clear
12:55 AM 66.6 °F 55.0 °F 66% 29.92 in 10.0 mi SSW 17.3 mph - N/A   Clear
1:15 AM 66.6 °F 55.4 °F 67% 29.91 in 10.0 mi SSW 16.1 mph - N/A   Clear
1:35 AM 65.8 °F 55.6 °F 69% 29.91 in 10.0 mi SSW 13.8 mph - N/A   Clear
1:55 AM 65.3 °F 55.8 °F 71% 29.90 in 10.0 mi SSW 15.0 mph - N/A   Clear
2:15 AM 64.8 °F 55.8 °F 73% 29.90 in 10.0 mi SSW 17.3 mph - N/A   Clear
2:35 AM 64.6 °F 56.3 °F 74% 29.90 in 10.0 mi SSW 18.4 mph - N/A   Clear
2:55 AM 64.6 °F 56.3 °F 74% 29.88 in 10.0 mi SSW 20.7 mph - N/A   Clear
3:15 AM 64.4 °F 56.5 °F 75% 29.88 in 10.0 mi South 18.4 mph - N/A   Clear
3:35 AM 64.0 °F 56.7 °F 77% 29.88 in 10.0 mi South 17.3 mph - N/A   Clear
3:55 AM 63.5 °F 56.7 °F 78% 29.88 in 10.0 mi SSW 16.1 mph - N/A   Clear
4:15 AM 63.0 °F 56.5 °F 79% 29.88 in 10.0 mi SSW 17.3 mph - N/A   Clear
4:35 AM 63.0 °F 56.7 °F 80% 29.87 in 10.0 mi SSW 19.6 mph - N/A   Clear
4:55 AM 63.1 °F 56.8 °F 80% 29.87 in 10.0 mi SSW 17.3 mph - N/A   Clear
5:15 AM 63.1 °F 56.8 °F 80% 29.87 in 10.0 mi SSW 17.3 mph - N/A   Clear
5:35 AM 62.6 °F 56.8 °F 81% 29.86 in 10.0 mi SSW 15.0 mph - N/A   Clear
5:55 AM 62.4 °F 57.0 °F 82% 29.86 in 10.0 mi South 16.1 mph - N/A   Clear
6:15 AM 62.2 °F 57.0 °F 83% 29.86 in 10.0 mi SSW 15.0 mph - N/A   Clear
6:35 AM 61.9 °F 56.8 °F 84% 29.87 in 10.0 mi South 15.0 mph - N/A   Clear
6:55 AM 61.3 °F 56.8 °F 85% 29.86 in 7.0 mi SSW 13.8 mph - N/A   Clear
7:15 AM 60.8 °F 56.7 °F 86% 29.88 in 10.0 mi SSW 12.7 mph - N/A   Clear
7:35 AM 60.6 °F 56.5 °F 86% 29.88 in 10.0 mi South 11.5 mph - N/A   Clear
7:55 AM 60.3 °F 56.3 °F 87% 29.89 in 7.0 mi SSW 11.5 mph - N/A   Clear
8:15 AM 60.8 °F 56.5 °F 86% 29.89 in 7.0 mi SSW 12.7 mph - N/A   Clear
8:35 AM 61.5 °F 56.7 °F 84% 29.90 in 7.0 mi South 11.5 mph - N/A   Clear
8:55 AM 62.4 °F 57.0 °F 82% 29.90 in 10.0 mi SSW 16.1 mph - N/A   Clear
9:15 AM 63.7 °F 57.4 °F 80% 29.90 in 10.0 mi SSW 17.3 mph - N/A   Clear
9:35 AM 64.8 °F 57.7 °F 78% 29.90 in 10.0 mi SSW 19.6 mph 24.2 mph N/A   Clear
9:55 AM 66.6 °F 58.1 °F 74% 29.90 in 10.0 mi SSW 21.9 mph 27.6 mph N/A   Clear
10:15 AM 68.0 °F 58.1 °F 71% 29.89 in 10.0 mi SSW 23.0 mph 27.6 mph N/A   Clear
10:55 AM 70.7 °F 58.1 °F 64% 29.91 in 10.0 mi SSW 23.0 mph 28.8 mph N/A   Clear
11:15 AM 72.3 °F 57.6 °F 60% 29.91 in 10.0 mi SW 21.9 mph 29.9 mph N/A   Clear
11:35 AM 74.1 °F 56.7 °F 54% 29.91 in 10.0 mi SW 20.7 mph 26.5 mph N/A   Clear
11:55 AM 76.3 °F 55.6 °F 49% 29.90 in 10.0 mi SW 21.9 mph 25.3 mph N/A   Clear
12:15 PM 77.7 °F 53.1 °F 42% 29.89 in 10.0 mi SW 20.7 mph 27.6 mph N/A   Clear
12:35 PM 78.8 °F 51.3 °F 38% 29.87 in 10.0 mi SW 20.7 mph 26.5 mph N/A   Clear
12:55 PM 79.9 °F 49.6 °F 35% 29.86 in 10.0 mi SW 20.7 mph 27.6 mph N/A   Clear
1:15 PM 80.8 °F 48.4 °F 32% 29.84 in 10.0 mi SW 19.6 mph 28.8 mph N/A   Clear
1:35 PM 81.9 °F 47.3 °F 30% 29.84 in 10.0 mi SW 19.6 mph 24.2 mph N/A   Clear
1:55 PM 82.9 °F 44.8 °F 26% 29.84 in 10.0 mi WSW 23.0 mph 26.5 mph N/A   Clear
2:15 PM 82.9 °F 42.6 °F 24% 29.84 in 10.0 mi WSW 16.1 mph 19.6 mph N/A   Clear
2:35 PM 83.7 °F 39.4 °F 21% 29.82 in 10.0 mi WSW 12.7 mph 21.9 mph N/A   Clear
2:55 PM 84.0 °F 36.5 °F 18% 29.81 in 10.0 mi SW 13.8 mph 19.6 mph N/A   Clear
3:35 PM 84.4 °F 30.7 °F 14% 29.81 in 10.0 mi WSW 15.0 mph 19.6 mph N/A   Clear
4:15 PM 84.2 °F 33.1 °F 16% 29.81 in 10.0 mi SSW 11.5 mph - N/A   Clear
4:35 PM 83.7 °F 33.6 °F 17% 29.81 in 10.0 mi SW 9.2 mph - N/A   Clear
4:55 PM 82.8 °F 30.9 °F 15% 29.82 in 10.0 mi West 5.8 mph - N/A   Clear
5:15 PM 80.6 °F 28.0 °F 15% 29.83 in 10.0 mi WNW 8.1 mph - N/A   Clear
5:35 PM 76.8 °F 27.9 °F 16% 29.83 in 10.0 mi NW 6.9 mph - N/A   Clear
5:55 PM 73.4 °F 28.2 °F 19% 29.84 in 10.0 mi WNW 9.2 mph - N/A   Clear
6:15 PM 71.1 °F 27.5 °F 20% 29.85 in 10.0 mi NW 10.4 mph - N/A   Clear
6:35 PM 70.9 °F 26.6 °F 19% 29.87 in 10.0 mi North 11.5 mph - N/A   Clear
6:55 PM 71.8 °F 25.7 °F 18% 29.88 in 10.0 mi North 16.1 mph - N/A   Clear
7:15 PM 70.2 °F 27.0 °F 20% 29.89 in 10.0 mi North 18.4 mph 23.0 mph N/A   Clear
7:35 PM 69.1 °F 28.9 °F 22% 29.91 in 10.0 mi North 19.6 mph - N/A   Clear
7:55 PM 68.7 °F 29.3 °F 23% 29.92 in 10.0 mi North 19.6 mph 27.6 mph N/A   Clear
8:15 PM 67.8 °F 29.3 °F 24% 29.94 in 10.0 mi North 24.2 mph 31.1 mph N/A   Clear
8:35 PM 66.7 °F 29.5 °F 25% 29.95 in 10.0 mi North 21.9 mph 26.5 mph N/A   Clear
8:55 PM 65.5 °F 30.4 °F 27% 29.96 in 10.0 mi North 20.7 mph 31.1 mph N/A   Clear
9:15 PM 64.4 °F 31.1 °F 29% 29.97 in 10.0 mi North 23.0 mph 29.9 mph N/A   Clear
9:35 PM 63.7 °F 32.4 °F 31% 29.99 in 10.0 mi North 20.7 mph 28.8 mph N/A   Clear
9:55 PM 62.8 °F 33.8 °F 34% 30.01 in 10.0 mi North 18.4 mph 25.3 mph N/A   Clear
10:15 PM 62.1 °F 35.4 °F 37% 30.03 in 10.0 mi North 20.7 mph - N/A   Clear
10:35 PM 61.3 °F 36.3 °F 39% 30.03 in 10.0 mi North 18.4 mph 25.3 mph N/A   Clear
10:55 PM 60.4 °F 36.5 °F 41% 30.04 in 10.0 mi North 16.1 mph - N/A   Clear
11:15 PM 59.5 °F 36.9 °F 43% 30.05 in 10.0 mi North 12.7 mph - N/A   Clear
11:35 PM 58.8 °F 37.0 °F 44% 30.05 in 10.0 mi North 15.0 mph - N/A   Clear